Location: Colonia Mina de C?rbuni
(46.1667°N, 22.7167°E)
Time: 07:30:05
(UTC+00:00)

Tiros 1 - Pass Details

Date: 26 April 2024
Orbit: 624 x 657 km, 48.4° (Epoch: 26 May)

Event Time Altitude Azimuth Distance (km) Brightness Sun altitude
Exits shadow 02:34:35 - 286° (WNW) 2,786 10.0 -8.4°
Reaches altitude 10° 02:36:51 10° 275° (W) 2,001 9.2 -8.1°
Maximum altitude 02:40:39 26° 219° (SW) 1,233 8.1 -7.5°
Drops below altitude 10° 02:44:26 10° 162° (SSE) 1,986 9.6 -6.9°
Sets 02:47:01 0° 150° (SSE) 2,888 10.5 -6.5°
